Location: Elstree
(51.6403°N, 0.2969°W)
Time: 14:34:38
(UTC+00:00)

SJ 16-02 - Pass Details

Date: 25 June 2021
Orbit: 606 x 616 km, 75.0° (Epoch: 29 July)

Event Time Altitude Azimuth Distance (km) Brightness Sun altitude
Rises 00:07:34 0° 324° (NW) 2,876 5.7 -15.0°
Reaches altitude 10° 00:10:23 10° 306° (NW) 1,966 4.4 -15.0°
Maximum altitude 00:13:19 18° 264° (W) 1,515 3.3 -14.9°
Enters shadow 00:15:19 14° 232° (SW) 1,736 3.3 -14.9°
